Simultaneous Nadir Overpasses (SNOs) Predictions

Prediction of SNOs between AQUA and GOES-15 Satellite Orbit:

Table of predicted SNOs for the next 14.0 days since TLE Epoch: 7/29/2023
Index Date Time (AQUA) AQUA Lat,Lon GOES-15 Lat,Lon Distance(km) Time Diff (sec)
1 07/31/2023 15:06:42 -0.53, 161.16 -0.43, 160.56 67.38 80
2 08/01/2023 03:27:36 -0.40, 156.07 0.45, 160.03 450.23 80
3 08/03/2023 03:13:24 0.74, 159.48 0.44, 158.03 165.19 80
4 08/03/2023 15:34:09 0.17, 154.43 -0.46, 157.51 349.85 80
5 08/05/2023 15:19:56 -0.94, 157.85 -0.45, 155.50 266.22 80
6 08/06/2023 03:40:49 -0.02, 152.77 0.47, 154.97 251.00 80
7 08/08/2023 03:26:36 1.13, 156.18 0.46, 152.96 366.02 80
8 08/08/2023 15:47:20 -0.17, 151.14 -0.47, 152.44 148.49 80
9 08/10/2023 15:33:07 -1.35, 154.55 -0.47, 150.43 468.48 80
10 08/11/2023 03:54:00 0.42, 149.47 0.49, 149.90 48.63 80
